Content
SEND FEEDBACK

Daily
Averages
Monthly
Summary
Greece

LIVADHI, GREECE


Home > Europe > Greece
Elevation: 13 feet     Latitude: 39 55N     Longitude: 025 13E

WEATHER
 
SELECT A DAY
Number of Records: 99,366;   Date Range: 7/4/96 - 9/30/14
 
SHARE

PRINT THIS DATA

[ ← Previous Day ]
WEATHER ALMANAC - JANUARY 31, 2013
[ Next Day → ]
[ °C ]   °F
Weather ElementAverageHighLow
Temperature46 °F55.4 °F (1:20 pm)37.4 °F (3:20 am)
Dewpoint41.4 °F46.4 °F (3:50 pm)35.6 °F (3:20 am)
Humidity84.3 %93 % (12:50 am)54 % (2:00 pm)
Barometer29.93 in30.01 in (12:50 am)29.86 in (1:20 pm)
Wind Speed3.9 mph10.4 mph (12:20 pm)
Weather ElementAverage
Visibility5.9 mi
Wind DirectionESE (124.5 °)

Weather ElementTotal
Precipitation---
Heating Degree Days18.6 (Base 65)
Averaged from 51 records on January 31, 2013
WEATHER CONDITIONS BREAKOUT
WIND DIRECTION BREAKOUT
WEATHER BY HOUR - JANUARY 31, 2013
[ °C ]   °F
Local TimeTemperatureDewpointHumidityBarometerVisibilityWind DirectionWind SpeedGust SpeedPrecipitationEventsConditions
12:50 AM41.0 °F39.2 °F93 %30.01 inVariable2.3 mph
1:20 AM39.2 °F37.4 °F93 %30.01 inCalm
1:50 AM39.2 °F37.4 °F93 %30.01 in6.2 miCalmMostly Cloudy
2:00 AM39.0 °F37.0 °F89 %30.01 in6.0 miCalmScattered Clouds
2:20 AM39.2 °F37.4 °F93 %30.01 inCalm
2:50 AM39.2 °F37.4 °F93 %29.98 inVariable1.2 mph
3:20 AM37.4 °F35.6 °F93 %29.98 inCalm
3:50 AM37.4 °F35.6 °F93 %29.98 inCalm
4:20 AM37.4 °F35.6 °F93 %29.98 inCalm
4:50 AM39.2 °F37.4 °F93 %29.98 inVariable1.2 mph
5:20 AM37.4 °F35.6 °F93 %29.95 inCalm
5:50 AM37.4 °F35.6 °F93 %29.95 in6.2 miCalmMostly Cloudy
6:20 AM39.2 °F37.4 °F93 %29.95 in6.2 miVariable3.5 mphMostly Cloudy
6:50 AM39.2 °F37.4 °F93 %29.95 in6.2 miCalmMostly Cloudy
7:20 AM39.2 °F37.4 °F93 %29.95 in6.2 miCalmScattered Clouds
7:50 AM37.4 °F35.6 °F93 %29.92 in6.2 miVariable2.3 mphScattered Clouds
8:00 AM38.0 °F36.0 °F88 %29.94 in6.0 mi°2.3 mphScattered Clouds
8:20 AM37.4 °F35.6 °F93 %29.92 in6.2 miVariable2.3 mphScattered Clouds
8:50 AM44.6 °F42.8 °F93 %29.92 in6.2 miCalmScattered Clouds
9:20 AM44.6 °F42.8 °F93 %29.92 in6.2 miCalmScattered Clouds
9:50 AM46.4 °F42.8 °F87 %29.92 in6.2 miCalmMostly Cloudy
10:20 AM48.2 °F42.8 °F82 %29.92 in6.2 miCalmScattered Clouds
10:50 AM53.6 °F44.6 °F72 %29.92 in6.2 miCalmPartly Cloudy
11:20 AM53.6 °F42.8 °F67 %29.92 in6.2 miSSE (160°)4.6 mphPartly Cloudy
11:50 AM53.6 °F42.8 °F67 %29.89 in6.2 miSSE (160°)4.6 mphMostly Cloudy
12:20 PM53.6 °F42.8 °F67 %29.89 in6.2 miSouth (180°)10.4 mphMostly Cloudy
12:50 PM53.6 °F42.8 °F67 %29.89 in6.2 miSouth (180°)8.1 mphMostly Cloudy
1:20 PM55.4 °F44.6 °F67 %29.86 in6.2 miSouth (180°)8.1 mphMostly Cloudy
1:50 PM55.4 °F42.8 °F63 %29.86 in6.2 miSouth (180°)8.1 mphMostly Cloudy
2:00 PM55.0 °F43.0 °F54 %29.88 in6.0 miSouth (180°)8.1 mphScattered Clouds
2:20 PM53.6 °F42.8 °F67 %29.86 in6.2 miSouth (180°)8.1 mphMostly Cloudy
2:50 PM53.6 °F44.6 °F72 %29.89 in6.2 miWSW (240°)5.8 mphMostly Cloudy
3:20 PM51.8 °F44.6 °F76 %29.89 in6.2 miWSW (240°)5.8 mphRainLight Rain
3:50 PM51.8 °F46.4 °F82 %29.89 in6.2 miCalmRainLight Rain
4:20 PM50.0 °F46.4 °F87 %29.89 in5.0 miWest (280°)4.6 mphRainRain
4:50 PM50.0 °F46.4 °F87 %29.89 in5.0 miNNW (330°)4.6 mphRainLight Rain
5:20 PM50.0 °F46.4 °F87 %29.89 in3.1 miWNW (300°)8.1 mphRainRain
5:50 PM48.2 °F46.4 °F93 %29.89 in3.1 miSSW (210°)4.6 mphRainRain
6:20 PM48.2 °F46.4 °F93 %29.86 in4.3 miVariable3.5 mphRainLight Rain
6:50 PM48.2 °F46.4 °F93 %29.89 in6.2 miSE (130°)3.5 mphOvercast
7:20 PM48.2 °F44.6 °F87 %29.92 in6.2 miWest (280°)6.9 mphOvercast
7:50 PM48.2 °F44.6 °F87 %29.92 in6.2 miWNW (290°)4.6 mphMostly Cloudy
8:00 PM47.0 °F45.0 °F92 %29.94 in6.0 miWNW (290°)4.6 mphPartly Cloudy
8:20 PM48.2 °F44.6 °F87 %29.92 in6.2 miVariable3.5 mphScattered Clouds
8:50 PM46.4 °F42.8 °F87 %29.92 in6.2 miVariable3.5 mphMostly Cloudy
9:20 PM50.0 °F44.6 °F82 %29.95 inNorth (350°)9.2 mph
9:50 PM50.0 °F44.6 °F82 %29.95 inNorth (360°)9.2 mph
10:20 PM48.2 °F42.8 °F82 %29.98 inNorth (360°)9.2 mph
10:50 PM48.2 °F42.8 °F82 %29.98 inNNW (340°)10.4 mph
11:20 PM48.2 °F41.0 °F76 %30.01 inNNW (340°)9.2 mph
11:50 PM48.2 °F41.0 °F76 %30.01 inNorth (360°)10.4 mph
Hourly data recorded from LGLM, located miles away from Livadhi, Greece







STORIES FROM OUR PARTNERS